| time (UTC) | temp F | wind direction | speed MPH | gust MPH | rain 1hr in | rain 24hr in | rain mn in | humidity % | barometer mb |
| 20260905183003 | 71 | 4 | 4.0 | 8.0 | 0.00 | 0.03 | 0.03 | 48 | 1015.7 |
| 20260905182503 | 69 | 27 | 0.0 | 1.0 | 0.00 | 0.03 | 0.03 | 52 | 1015.8 |
| 20260905181957 | 69 | 238 | 5.0 | 6.0 | 0.00 | 0.03 | 0.03 | 52 | 1015.8 |
| 20260905181453 | 69 | 151 | 6.0 | 8.0 | 0.00 | 0.03 | 0.03 | 53 | 1015.5 |
| 20260905180952 | 69 | 336 | 4.0 | 7.0 | 0.00 | 0.03 | 0.03 | 49 | 1016.0 |
| 20260905180446 | 70 | 301 | 5.0 | 6.0 | 0.00 | 0.03 | 0.03 | 54 | 1015.5 |
| 20260905175942 | 71 | 124 | 4.0 | 7.0 | 0.00 | 0.03 | 0.03 | 53 | 1015.8 |
| 20260905175441 | 71 | 146 | 1.0 | 1.0 | 0.00 | 0.03 | 0.03 | 50 | 1015.8 |
| 20260905174937 | 69 | 92 | 1.0 | 2.0 | 0.00 | 0.03 | 0.03 | 53 | 1016.1 |
| 20260905174432 | 69 | 173 | 5.0 | 9.0 | 0.00 | 0.03 | 0.03 | 52 | 1015.9 |
| 20260905173927 | 69 | 236 | 4.0 | 5.0 | 0.00 | 0.03 | 0.03 | 53 | 1015.7 |
| 20260905173424 | 69 | 108 | 2.0 | 2.0 | 0.00 | 0.03 | 0.03 | 53 | 1015.9 |
| 20260905172919 | 70 | 126 | 0.0 | 0.0 | 0.00 | 0.03 | 0.03 | 52 | 1016.0 |
| 20260905172417 | 68 | 123 | 1.0 | 1.0 | 0.00 | 0.03 | 0.03 | 56 | 1015.9 |
| 20260905171913 | 69 | 352 | 4.0 | 5.0 | 0.00 | 0.03 | 0.03 | 53 | 1015.5 |
| 20260905171409 | 68 | 144 | 1.0 | 2.0 | 0.00 | 0.03 | 0.03 | 57 | 1016.0 |
| 20260905170905 | 68 | 138 | 2.0 | 2.0 | 0.00 | 0.03 | 0.03 | 57 | 1015.9 |
| 20260905170401 | 68 | 15 | 2.0 | 3.0 | 0.00 | 0.03 | 0.03 | 58 | 1016.1 |
| 20260905165900 | 68 | 130 | 2.0 | 2.0 | 0.00 | 0.03 | 0.03 | 62 | 1015.8 |
| 20260905165355 | 67 | 135 | 0.0 | 1.0 | 0.00 | 0.03 | 0.03 | 62 | 1015.9 |
| 20260905164850 | 66 | 199 | 3.0 | 5.0 | 0.00 | 0.03 | 0.03 | 66 | 1016.2 |
| 20260905164345 | 64 | 131 | 1.0 | 2.0 | 0.00 | 0.03 | 0.03 | 69 | 1016.0 |
| 20260905163840 | 63 | 266 | 4.0 | 5.0 | 0.00 | 0.03 | 0.03 | 70 | 1016.0 |
| 20260905163336 | 62 | 213 | 3.0 | 3.0 | 0.00 | 0.03 | 0.03 | 74 | 1016.1 |
| 20260905162832 | 62 | 272 | 3.0 | 5.0 | 0.00 | 0.03 | 0.03 | 76 | 1016.0 |
| 20260905162326 | 62 | 139 | 1.0 | 1.0 | 0.00 | 0.03 | 0.03 | 76 | 1016.0 |
| 20260905161821 | 61 | 145 | 0.0 | 1.0 | 0.00 | 0.03 | 0.03 | 79 | 1016.1 |
| 20260905161320 | 61 | 159 | 2.0 | 2.0 | 0.00 | 0.03 | 0.03 | 80 | 1016.0 |
| 20260905160819 | 60 | 256 | 4.0 | 5.0 | 0.00 | 0.03 | 0.03 | 80 | 1016.1 |
| 20260905160313 | 60 | 128 | 2.0 | 3.0 | 0.00 | 0.03 | 0.03 | 79 | 1016.0 |
| 20260905155808 | 61 | 308 | 3.0 | 5.0 | 0.00 | 0.03 | 0.03 | 78 | 1016.0 |
| 20260905155307 | 60 | 183 | 2.0 | 2.0 | 0.00 | 0.03 | 0.03 | 80 | 1015.9 |
| 20260905154801 | 60 | 160 | 2.0 | 2.0 | 0.00 | 0.03 | 0.03 | 82 | 1016.0 |
| 20260905154257 | 59 | 136 | 0.0 | 1.0 | 0.00 | 0.03 | 0.03 | 83 | 1016.0 |
| 20260905153752 | 58 | 246 | 3.0 | 3.0 | 0.00 | 0.03 | 0.03 | 84 | 1016.1 |
| 20260905153248 | 58 | 281 | 3.0 | 3.0 | 0.00 | 0.03 | 0.03 | 84 | 1016.1 |
| 20260905152742 | 58 | 134 | 1.0 | 1.0 | 0.00 | 0.03 | 0.03 | 86 | 1016.0 |
| 20260905152236 | 58 | 127 | 0.0 | 0.0 | 0.00 | 0.03 | 0.03 | 88 | 1016.0 |
| 20260905151731 | 57 | 128 | 0.0 | 0.0 | 0.00 | 0.03 | 0.03 | 89 | 1015.9 |
| 20260905151227 | 57 | 126 | 0.0 | 0.0 | 0.00 | 0.03 | 0.03 | 90 | 1015.8 |
| 20260905150726 | 57 | 12 | 1.0 | 3.0 | 0.00 | 0.03 | 0.03 | 91 | 1015.7 |
| 20260905150225 | 56 | 114 | 0.0 | 1.0 | 0.00 | 0.03 | 0.03 | 92 | 1016.0 |
| 20260905145723 | 57 | 128 | 0.0 | 0.0 | 0.00 | 0.03 | 0.03 | 93 | 1016.1 |
| 20260905145218 | 55 | 133 | 0.0 | 0.0 | 0.00 | 0.03 | 0.03 | 94 | 1016.0 |
| 20260905144717 | 55 | 98 | 2.0 | 2.0 | 0.00 | 0.03 | 0.03 | 93 | 1015.3 |
| 20260905144218 | 55 | 122 | 0.0 | 0.0 | 0.00 | 0.03 | 0.03 | 94 | 1015.3 |
| 20260905143712 | 55 | 129 | 0.0 | 0.0 | 0.00 | 0.03 | 0.03 | 94 | 1015.7 |
| 20260905143212 | 54 | 150 | 1.0 | 1.0 | 0.00 | 0.03 | 0.03 | 94 | 1015.7 |
| 20260905142710 | 54 | 112 | 1.0 | 1.0 | 0.00 | 0.03 | 0.03 | 94 | 1015.7 |
| 20260905142205 | 54 | 118 | 0.0 | 0.0 | 0.00 | 0.03 | 0.03 | 94 | 1015.7 |
| 20260905141700 | 53 | 129 | 0.0 | 0.0 | 0.00 | 0.03 | 0.03 | 94 | 1015.5 |
| 20260905141156 | 53 | 126 | 0.0 | 1.0 | 0.00 | 0.03 | 0.03 | 94 | 1014.9 |
| 20260905140651 | 53 | 121 | 1.0 | 1.0 | 0.00 | 0.03 | 0.03 | 93 | 1015.0 |
| 20260905140150 | 53 | 125 | 0.0 | 0.0 | 0.00 | 0.03 | 0.03 | 93 | 1015.2 |
| 20260905135645 | 53 | 123 | 1.0 | 2.0 | 0.05 | 0.03 | 0.03 | 93 | 1015.2 |
| 20260905135136 | 53 | 135 | 0.0 | 0.0 | 0.05 | 0.03 | 0.03 | 92 | 1015.1 |
| 20260905134630 | 53 | 125 | 1.0 | 1.0 | 0.05 | 0.03 | 0.03 | 92 | 1015.2 |
| 20260905134129 | 53 | 304 | 6.0 | 7.0 | 0.14 | 0.02 | 0.02 | 91 | 1015.9 |
| 20260905133625 | 53 | 303 | 9.0 | 9.0 | 0.07 | 0.01 | 0.01 | 90 | 1016.1 |
| 20260905133125 | 53 | 260 | 8.0 | 9.0 | 0.00 | 0.00 | 0.00 | 88 | 1016.5 |
| 20260905132624 | 53 | 251 | 8.0 | 8.0 | 0.00 | 0.00 | 0.00 | 87 | 1016.4 |
| 20260905132119 | 54 | 264 | 8.0 | 9.0 | 0.00 | 0.00 | 0.00 | 85 | 1016.3 |
| 20260905131614 | 53 | 286 | 11.0 | 14.0 | 0.00 | 0.00 | 0.00 | 85 | 1015.8 |
| 20260905131109 | 53 | 277 | 9.0 | 11.0 | 0.00 | 0.00 | 0.00 | 86 | 1015.5 |
| 20260905130609 | 53 | 307 | 7.0 | 9.0 | 0.00 | 0.00 | 0.00 | 86 | 1015.2 |
| 20260905125603 | 53 | 120 | 3.0 | 3.0 | 0.00 | 0.00 | 0.00 | 84 | 1014.5 |
| 20260905125059 | 53 | 135 | 0.0 | 0.0 | 0.00 | 0.00 | 0.00 | 85 | 1014.2 |
| 20260905124555 | 52 | 127 | 0.0 | 0.0 | 0.00 | 0.00 | 0.00 | 85 | 1014.2 |
| 20260905124051 | 53 | 131 | 0.0 | 0.0 | 0.00 | 0.00 | 0.00 | 84 | 1014.0 |
| 20260905123546 | 53 | 130 | 1.0 | 1.0 | 0.00 | 0.00 | 0.00 | 83 | 1014.5 |
| 20260905123043 | 53 | 126 | 0.0 | 0.0 | 0.00 | 0.00 | 0.00 | 82 | 1014.8 |
| 20260905122542 | 53 | 129 | 0.0 | 0.0 | 0.00 | 0.00 | 0.00 | 81 | 1015.1 |
| 20260905122037 | 53 | 129 | 0.0 | 0.0 | 0.00 | 0.00 | 0.00 | 81 | 1015.0 |
| 20260905121532 | 53 | 116 | 1.0 | 1.0 | 0.00 | 0.00 | 0.00 | 80 | 1014.9 |
| 20260905121026 | 53 | 88 | 2.0 | 2.0 | 0.00 | 0.00 | 0.00 | 80 | 1014.7 |
| 20260905120521 | 54 | 304 | 3.0 | 3.0 | 0.00 | 0.00 | 0.00 | 80 | 1014.9 |
| 20260905120016 | 54 | 267 | 3.0 | 3.0 | 0.00 | 0.00 | 0.00 | 78 | 1014.9 |
| 20260905115515 | 53 | 235 | 3.0 | 3.0 | 0.00 | 0.00 | 0.00 | 79 | 1014.8 |
| 20260905115009 | 52 | 145 | 2.0 | 2.0 | 0.00 | 0.00 | 0.00 | 81 | 1015.1 |
| 20260905114504 | 51 | 148 | 2.0 | 2.0 | 0.00 | 0.00 | 0.00 | 85 | 1015.1 |
| 20260905114003 | 50 | 140 | 1.0 | 1.0 | 0.00 | 0.00 | 0.00 | 85 | 1015.0 |
| 20260905113458 | 50 | 133 | 1.0 | 1.0 | 0.00 | 0.00 | 0.00 | 85 | 1014.9 |
| 20260905112953 | 49 | 135 | 0.0 | 0.0 | 0.00 | 0.00 | 0.00 | 86 | 1014.5 |
| 20260905112448 | 50 | 124 | 0.0 | 0.0 | 0.00 | 0.00 | 0.00 | 85 | 1014.2 |
| 20260905111944 | 50 | 129 | 0.0 | 0.0 | 0.00 | 0.00 | 0.00 | 84 | 1014.2 |
| 20260905111443 | 50 | 126 | 0.0 | 0.0 | 0.00 | 0.00 | 0.00 | 84 | 1014.3 |
| 20260905110938 | 50 | 113 | 0.0 | 0.0 | 0.00 | 0.00 | 0.00 | 83 | 1013.9 |
| 20260905110431 | 50 | 137 | 1.0 | 1.0 | 0.00 | 0.00 | 0.00 | 83 | 1014.3 |
| 20260905105932 | 50 | 128 | 0.0 | 0.0 | 0.00 | 0.00 | 0.00 | 83 | 1014.5 |
| 20260905105426 | 50 | 125 | 0.0 | 1.0 | 0.00 | 0.00 | 0.00 | 83 | 1014.5 |
| 20260905104925 | 50 | 136 | 0.0 | 1.0 | 0.00 | 0.00 | 0.00 | 83 | 1014.6 |
| 20260905104421 | 50 | 132 | 1.0 | 1.0 | 0.00 | 0.00 | 0.00 | 83 | 1014.0 |
| 20260905103916 | 50 | 126 | 0.0 | 0.0 | 0.00 | 0.00 | 0.00 | 82 | 1013.6 |
| 20260905103412 | 50 | 130 | 0.0 | 0.0 | 0.00 | 0.00 | 0.00 | 82 | 1013.2 |
| 20260905102907 | 51 | 130 | 0.0 | 0.0 | 0.00 | 0.00 | 0.00 | 81 | 1013.9 |
| 20260905102403 | 51 | 129 | 0.0 | 0.0 | 0.00 | 0.00 | 0.00 | 81 | 1013.8 |
| 20260905101858 | 52 | 136 | 0.0 | 0.0 | 0.00 | 0.00 | 0.00 | 79 | 1013.2 |
| 20260905101356 | 52 | 312 | 5.0 | 5.0 | 0.00 | 0.00 | 0.00 | 79 | 1013.2 |
| 20260905100857 | 52 | 257 | 10.0 | 13.0 | 0.00 | 0.00 | 0.00 | 79 | 1013.4 |
| 20260905100353 | 51 | 271 | 6.0 | 8.0 | 0.00 | 0.00 | 0.00 | 80 | 1013.4 |
| 20260905095851 | 51 | 298 | 6.0 | 7.0 | 0.00 | 0.00 | 0.00 | 80 | 1013.6 |
| 20260905095346 | 51 | 206 | 3.0 | 5.0 | 0.00 | 0.00 | 0.00 | 80 | 1013.6 |
| 20260905094841 | 51 | 279 | 5.0 | 6.0 | 0.00 | 0.00 | 0.00 | 81 | 1013.5 |
| 20260905094337 | 51 | 167 | 1.0 | 2.0 | 0.00 | 0.00 | 0.00 | 80 | 1013.4 |
| 20260905093835 | 51 | 259 | 6.0 | 7.0 | 0.00 | 0.00 | 0.00 | 79 | 1013.2 |
| 20260905093326 | 51 | 239 | 7.0 | 8.0 | 0.00 | 0.00 | 0.00 | 79 | 1013.0 |
| 20260905092822 | 52 | 235 | 6.0 | 7.0 | 0.00 | 0.00 | 0.00 | 78 | 1013.2 |
| 20260905092321 | 51 | 244 | 9.0 | 11.0 | 0.00 | 0.00 | 0.00 | 79 | 1013.4 |
| 20260905091817 | 50 | 251 | 8.0 | 9.0 | 0.00 | 0.00 | 0.00 | 81 | 1013.4 |
| 20260905091316 | 49 | 253 | 9.0 | 11.0 | 0.00 | 0.00 | 0.00 | 82 | 1013.2 |
| 20260905090815 | 50 | 248 | 5.0 | 6.0 | 0.00 | 0.00 | 0.00 | 82 | 1013.2 |
| 20260905090311 | 50 | 163 | 2.0 | 2.0 | 0.00 | 0.00 | 0.00 | 82 | 1012.9 |
| 20260905085811 | 50 | 265 | 3.0 | 3.0 | 0.00 | 0.00 | 0.00 | 82 | 1012.9 |
| 20260905085310 | 50 | 255 | 3.0 | 5.0 | 0.00 | 0.00 | 0.00 | 82 | 1012.9 |
| 20260905084800 | 51 | 144 | 0.0 | 1.0 | 0.00 | 0.00 | 0.00 | 80 | 1012.9 |
| 20260905084300 | 52 | 172 | 1.0 | 2.0 | 0.00 | 0.00 | 0.00 | 79 | 1012.7 |
| 20260905083755 | 52 | 217 | 2.0 | 2.0 | 0.00 | 0.00 | 0.00 | 77 | 1012.6 |
| 20260905083251 | 53 | 136 | 0.0 | 0.0 | 0.00 | 0.00 | 0.00 | 77 | 1012.5 |
| 20260905082746 | 54 | 169 | 2.0 | 2.0 | 0.00 | 0.00 | 0.00 | 76 | 1012.7 |
| 20260905082242 | 54 | 157 | 2.0 | 2.0 | 0.00 | 0.00 | 0.00 | 74 | 1012.4 |
| 20260905081741 | 54 | 131 | 0.0 | 1.0 | 0.00 | 0.00 | 0.00 | 74 | 1012.2 |
| 20260905081237 | 55 | 124 | 0.0 | 0.0 | 0.00 | 0.00 | 0.00 | 73 | 1011.9 |
| 20260905080731 | 55 | 59 | 4.0 | 6.0 | 0.00 | 0.00 | 0.00 | 72 | 1011.9 |
| 20260905080231 | 54 | 42 | 6.0 | 7.0 | 0.00 | 0.00 | 0.00 | 72 | 1011.8 |
| 20260905075730 | 54 | 39 | 4.0 | 5.0 | 0.00 | 0.00 | 0.00 | 74 | 1012.0 |
| 20260905075229 | 54 | 24 | 3.0 | 3.0 | 0.00 | 0.00 | 0.00 | 73 | 1012.7 |
| 20260905074728 | 55 | 147 | 1.0 | 1.0 | 0.00 | 0.00 | 0.00 | 73 | 1013.2 |
| 20260905074224 | 55 | 115 | 0.0 | 1.0 | 0.00 | 0.00 | 0.00 | 71 | 1013.4 |
| 20260905073719 | 56 | 296 | 5.0 | 6.0 | 0.00 | 0.00 | 0.00 | 69 | 1013.5 |
| 20260905073215 | 55 | 289 | 4.0 | 5.0 | 0.00 | 0.00 | 0.00 | 69 | 1013.6 |
| 20260905072714 | 55 | 296 | 3.0 | 5.0 | 0.00 | 0.00 | 0.00 | 72 | 1013.9 |
| 20260905072210 | 55 | 112 | 0.0 | 0.0 | 0.00 | 0.00 | 0.00 | 72 | 1013.7 |
| 20260905071706 | 55 | 69 | 3.0 | 3.0 | 0.00 | 0.00 | 0.00 | 72 | 1013.5 |
| 20260905071202 | 55 | 130 | 0.0 | 0.0 | 0.00 | 0.00 | 0.00 | 71 | 1013.4 |
| 20260905070656 | 55 | 314 | 2.0 | 3.0 | 0.00 | 0.00 | 0.00 | 71 | 1013.7 |
| 20260905070152 | 55 | 100 | 1.0 | 1.0 | 0.00 | 0.00 | 0.00 | 72 | 1013.4 |
| 20260905065651 | 54 | 41 | 3.0 | 3.0 | 0.00 | 0.00 | 0.00 | 73 | 1013.1 |
| 20260905065145 | 54 | 118 | 0.0 | 1.0 | 0.00 | 0.00 | 0.00 | 73 | 1013.0 |
| 20260905064641 | 55 | 109 | 0.0 | 0.0 | 0.00 | 0.00 | 0.00 | 73 | 1012.7 |
| 20260905064137 | 55 | 180 | 4.0 | 6.0 | 0.00 | 0.00 | 0.00 | 72 | 1012.6 |
| 20260905063635 | 55 | 149 | 3.0 | 5.0 | 0.00 | 0.00 | 0.00 | 71 | 1012.4 |
| 20260905063132 | 55 | 43 | 2.0 | 3.0 | 0.00 | 0.00 | 0.00 | 71 | 1012.4 |
| 20260905062627 | 56 | 137 | 3.0 | 3.0 | 0.00 | 0.00 | 0.00 | 70 | 1012.6 |
| 20260905062126 | 56 | 10 | 7.0 | 8.0 | 0.00 | 0.00 | 0.00 | 69 | 1012.7 |
| 20260905061621 | 56 | 276 | 8.0 | 10.0 | 0.00 | 0.00 | 0.00 | 70 | 1012.6 |
| 20260905061121 | 56 | 312 | 9.0 | 10.0 | 0.00 | 0.00 | 0.00 | 70 | 1012.7 |
| 20260905060616 | 55 | 322 | 6.0 | 8.0 | 0.00 | 0.00 | 0.00 | 72 | 1012.6 |
| 20260905060113 | 54 | 240 | 3.0 | 5.0 | 0.00 | 0.00 | 0.00 | 75 | 1012.7 |
| 20260905055611 | 54 | 128 | 2.0 | 2.0 | 0.00 | 0.00 | 0.00 | 73 | 1012.7 |
| 20260905055106 | 55 | 258 | 2.0 | 2.0 | 0.00 | 0.00 | 0.00 | 71 | 1012.5 |
| 20260905054602 | 55 | 94 | 2.0 | 2.0 | 0.00 | 0.00 | 0.00 | 71 | 1012.7 |
| 20260905054057 | 56 | 131 | 1.0 | 2.0 | 0.00 | 0.00 | 0.00 | 69 | 1012.6 |
| 20260905053556 | 57 | 69 | 2.0 | 2.0 | 0.00 | 0.00 | 0.00 | 66 | 1012.4 |
| 20260905053052 | 57 | 174 | 2.0 | 2.0 | 0.00 | 0.00 | 0.00 | 64 | 1012.6 |
| 20260905052551 | 58 | 319 | 3.0 | 3.0 | 0.00 | 0.00 | 0.00 | 63 | 1012.5 |
| 20260905052046 | 57 | 188 | 5.0 | 6.0 | 0.00 | 0.00 | 0.00 | 63 | 1012.4 |
| 20260905051542 | 55 | 131 | 0.0 | 0.0 | 0.00 | 0.00 | 0.00 | 65 | 1012.4 |
| 20260905051038 | 55 | 131 | 0.0 | 0.0 | 0.00 | 0.00 | 0.00 | 66 | 1012.3 |
| 20260905050534 | 56 | 117 | 1.0 | 2.0 | 0.00 | 0.00 | 0.00 | 64 | 1012.0 |
| 20260905050031 | 56 | 83 | 3.0 | 3.0 | 0.00 | 0.00 | 0.00 | 63 | 1012.3 |
| 20260905045525 | 56 | 132 | 0.0 | 0.0 | 0.00 | 0.00 | 0.00 | 62 | 1012.4 |
| 20260905045021 | 55 | 127 | 1.0 | 1.0 | 0.00 | 0.00 | 0.00 | 65 | 1012.6 |
| 20260905044520 | 56 | 119 | 0.0 | 1.0 | 0.00 | 0.00 | 0.00 | 64 | 1012.6 |
| 20260905044015 | 57 | 124 | 0.0 | 0.0 | 0.00 | 0.00 | 0.00 | 62 | 1012.4 |
| 20260905043515 | 57 | 194 | 2.0 | 2.0 | 0.00 | 0.00 | 0.00 | 61 | 1012.0 |
| 20260905043010 | 57 | 147 | 1.0 | 1.0 | 0.00 | 0.00 | 0.00 | 61 | 1012.0 |
| 20260905042508 | 58 | 119 | 0.0 | 1.0 | 0.00 | 0.00 | 0.00 | 61 | 1011.6 |
| 20260905042004 | 58 | 105 | 1.0 | 1.0 | 0.00 | 0.00 | 0.00 | 59 | 1011.9 |
| 20260905041459 | 59 | 97 | 2.0 | 2.0 | 0.00 | 0.00 | 0.00 | 58 | 1011.8 |
| 20260905040955 | 60 | 81 | 2.0 | 2.0 | 0.00 | 0.00 | 0.00 | 58 | 1011.8 |
| 20260905040454 | 59 | 158 | 2.0 | 2.0 | 0.00 | 0.00 | 0.00 | 54 | 1012.8 |
| 20260905035953 | 59 | 136 | 0.0 | 0.0 | 0.00 | 0.00 | 0.00 | 59 | 1012.5 |
| 20260905035448 | 60 | 139 | 0.0 | 1.0 | 0.00 | 0.00 | 0.00 | 57 | 1011.9 |
| 20260905034946 | 60 | 154 | 1.0 | 1.0 | 0.00 | 0.00 | 0.00 | 55 | 1012.0 |
| 20260905034441 | 59 | 141 | 1.0 | 1.0 | 0.00 | 0.00 | 0.00 | 57 | 1011.6 |
| 20260905033939 | 60 | 141 | 0.0 | 0.0 | 0.00 | 0.00 | 0.00 | 55 | 1011.2 |
| 20260905033439 | 60 | 154 | 1.0 | 1.0 | 0.00 | 0.00 | 0.00 | 55 | 1011.1 |
| 20260905032934 | 60 | 114 | 1.0 | 2.0 | 0.00 | 0.00 | 0.00 | 54 | 1011.1 |
| 20260905032430 | 60 | 123 | 0.0 | 0.0 | 0.00 | 0.00 | 0.00 | 55 | 1010.7 |
| 20260905031924 | 61 | 121 | 0.0 | 0.0 | 0.00 | 0.00 | 0.00 | 54 | 1010.6 |
| 20260905031420 | 62 | 121 | 0.0 | 0.0 | 0.00 | 0.00 | 0.00 | 53 | 1010.8 |
| 20260905030916 | 62 | 106 | 1.0 | 1.0 | 0.00 | 0.00 | 0.00 | 51 | 1011.0 |
| 20260905030411 | 63 | 105 | 1.0 | 1.0 | 0.00 | 0.00 | 0.00 | 51 | 1011.2 |
| 20260905025910 | 63 | 114 | 1.0 | 1.0 | 0.00 | 0.00 | 0.00 | 51 | 1011.0 |
| 20260905025405 | 63 | 122 | 0.0 | 0.0 | 0.00 | 0.00 | 0.00 | 50 | 1011.0 |
| 20260905024902 | 64 | 127 | 0.0 | 0.0 | 0.00 | 0.00 | 0.00 | 49 | 1010.7 |
| 20260905024356 | 65 | 126 | 0.0 | 0.0 | 0.00 | 0.00 | 0.00 | 48 | 1010.7 |
| 20260905023852 | 65 | 122 | 3.0 | 5.0 | 0.00 | 0.00 | 0.00 | 46 | 1010.6 |
| 20260905023347 | 64 | 86 | 3.0 | 5.0 | 0.00 | 0.00 | 0.00 | 47 | 1010.4 |
| 20260905022846 | 64 | 95 | 1.0 | 2.0 | 0.00 | 0.00 | 0.00 | 48 | 1010.2 |
| 20260905022341 | 65 | 131 | 1.0 | 2.0 | 0.00 | 0.00 | 0.00 | 47 | 1010.1 |
| 20260905021836 | 65 | 126 | 2.0 | 2.0 | 0.00 | 0.00 | 0.00 | 46 | 1010.1 |
| 20260905021331 | 66 | 140 | 0.0 | 0.0 | 0.00 | 0.00 | 0.00 | 46 | 1010.0 |
| 20260905020826 | 66 | 126 | 1.0 | 1.0 | 0.00 | 0.00 | 0.00 | 45 | 1010.2 |
| 20260905020321 | 66 | 310 | 6.0 | 8.0 | 0.00 | 0.00 | 0.00 | 44 | 1010.3 |
| 20260905015820 | 67 | 309 | 7.0 | 9.0 | 0.00 | 0.00 | 0.00 | 44 | 1010.0 |
| 20260905015319 | 66 | 299 | 4.0 | 6.0 | 0.00 | 0.00 | 0.00 | 44 | 1009.8 |
| 20260905014819 | 66 | 75 | 1.0 | 2.0 | 0.00 | 0.00 | 0.00 | 44 | 1009.9 |
| 20260905014315 | 67 | 106 | 2.0 | 3.0 | 0.00 | 0.00 | 0.00 | 45 | 1009.4 |
| 20260905013810 | 67 | 35 | 2.0 | 2.0 | 0.00 | 0.00 | 0.00 | 43 | 1009.1 |
| 20260905013306 | 67 | 21 | 2.0 | 3.0 | 0.00 | 0.00 | 0.00 | 43 | 1009.1 |
| 20260905012801 | 67 | 77 | 2.0 | 2.0 | 0.00 | 0.00 | 0.00 | 43 | 1008.9 |
| 20260905012256 | 68 | 169 | 2.0 | 3.0 | 0.00 | 0.00 | 0.00 | 43 | 1008.8 |
| 20260905011753 | 68 | 44 | 5.0 | 8.0 | 0.00 | 0.00 | 0.00 | 42 | 1008.9 |
| 20260905011249 | 69 | 16 | 6.0 | 9.0 | 0.00 | 0.00 | 0.00 | 41 | 1008.6 |
| 20260905010743 | 69 | 46 | 3.0 | 5.0 | 0.00 | 0.00 | 0.00 | 41 | 1008.4 |
| 20260905010238 | 69 | 0 | 4.0 | 14.0 | 0.00 | 0.00 | 0.00 | 41 | 1008.3 |
| 20260905005735 | 70 | 111 | 3.0 | 3.0 | 0.00 | 0.00 | 0.00 | 40 | 1008.3 |
| 20260905005231 | 70 | 19 | 5.0 | 8.0 | 0.00 | 0.00 | 0.00 | 40 | 1008.3 |
| 20260905004730 | 70 | 37 | 4.0 | 8.0 | 0.00 | 0.00 | 0.00 | 40 | 1008.6 |
| 20260905004225 | 70 | 306 | 3.0 | 6.0 | 0.00 | 0.00 | 0.00 | 40 | 1008.4 |
| 20260905003720 | 71 | 287 | 6.0 | 15.0 | 0.00 | 0.00 | 0.00 | 39 | 1008.1 |
| 20260905003216 | 71 | 139 | 1.0 | 2.0 | 0.00 | 0.00 | 0.00 | 40 | 1008.0 |
| 20260905002711 | 71 | 347 | 2.0 | 3.0 | 0.00 | 0.00 | 0.00 | 39 | 1008.1 |
| 20260905002211 | 71 | 173 | 3.0 | 3.0 | 0.00 | 0.00 | 0.00 | 39 | 1008.3 |
| 20260905001706 | 71 | 153 | 1.0 | 1.0 | 0.00 | 0.00 | 0.00 | 39 | 1008.3 |
| 20260905001205 | 71 | 279 | 5.0 | 7.0 | 0.00 | 0.00 | 0.00 | 39 | 1008.2 |
| 20260905000701 | 71 | 122 | 2.0 | 5.0 | 0.00 | 0.00 | 0.00 | 39 | 1008.3 |
| 20260905000157 | 71 | 197 | 5.0 | 9.0 | 0.00 | 0.00 | 0.00 | 39 | 1008.4 |
| 20260904235656 | 71 | 94 | 1.0 | 2.0 | 0.00 | 0.00 | 0.00 | 39 | 1008.1 |
| 20260904235157 | 71 | 214 | 5.0 | 9.0 | 0.00 | 0.00 | 0.00 | 39 | 1008.2 |
| 20260904234651 | 71 | 124 | 1.0 | 2.0 | 0.00 | 0.00 | 0.00 | 39 | 1008.3 |
| 20260904234148 | 72 | 161 | 2.0 | 2.0 | 0.00 | 0.00 | 0.00 | 38 | 1008.4 |
| 20260904233643 | 72 | 107 | 3.0 | 5.0 | 0.00 | 0.00 | 0.00 | 38 | 1008.3 |
| 20260904233138 | 72 | 99 | 2.0 | 5.0 | 0.00 | 0.00 | 0.00 | 37 | 1008.6 |
| 20260904232635 | 72 | 142 | 3.0 | 6.0 | 0.00 | 0.00 | 0.00 | 38 | 1008.6 |
| 20260904232131 | 71 | 145 | 1.0 | 2.0 | 0.00 | 0.00 | 0.00 | 38 | 1008.4 |
| 20260904231626 | 71 | 92 | 2.0 | 3.0 | 0.00 | 0.00 | 0.00 | 39 | 1008.3 |
| 20260904231121 | 71 | 100 | 2.0 | 5.0 | 0.00 | 0.00 | 0.00 | 38 | 1008.4 |
| 20260904230620 | 71 | 113 | 1.0 | 1.0 | 0.00 | 0.00 | 0.00 | 39 | 1008.6 |
| 20260904230116 | 71 | 168 | 3.0 | 5.0 | 0.00 | 0.00 | 0.00 | 38 | 1008.8 |
| 20260904225614 | 71 | 328 | 5.0 | 11.0 | 0.00 | 0.00 | 0.00 | 38 | 1008.6 |
| 20260904225109 | 72 | 122 | 3.0 | 5.0 | 0.00 | 0.00 | 0.00 | 38 | 1008.4 |
| 20260904224603 | 72 | 147 | 2.0 | 3.0 | 0.00 | 0.00 | 0.00 | 37 | 1008.4 |
| 20260904224058 | 71 | 135 | 1.0 | 1.0 | 0.00 | 0.00 | 0.00 | 38 | 1008.2 |
| 20260904223557 | 72 | 85 | 5.0 | 9.0 | 0.00 | 0.00 | 0.00 | 38 | 1008.4 |
| 20260904223053 | 74 | 190 | 3.0 | 6.0 | 0.00 | 0.00 | 0.00 | 36 | 1008.3 |
| 20260904222548 | 72 | 150 | 2.0 | 3.0 | 0.00 | 0.00 | 0.00 | 37 | 1008.2 |
| 20260904222044 | 73 | 295 | 11.0 | 11.0 | 0.00 | 0.00 | 0.00 | 37 | 1008.1 |
| 20260904221538 | 73 | 228 | 3.0 | 3.0 | 0.00 | 0.00 | 0.00 | 37 | 1008.3 |
| 20260904221033 | 72 | 302 | 4.0 | 8.0 | 0.00 | 0.00 | 0.00 | 38 | 1008.1 |
| 20260904220532 | 72 | 13 | 4.0 | 5.0 | 0.00 | 0.00 | 0.00 | 38 | 1008.0 |
| 20260904220028 | 72 | 135 | 2.0 | 3.0 | 0.00 | 0.00 | 0.00 | 37 | 1008.0 |
| 20260904215528 | 72 | 234 | 6.0 | 8.0 | 0.00 | 0.00 | 0.00 | 38 | 1007.9 |
| 20260904215024 | 73 | 132 | 3.0 | 5.0 | 0.00 | 0.00 | 0.00 | 38 | 1008.1 |
| 20260904214519 | 74 | 251 | 5.0 | 9.0 | 0.00 | 0.00 | 0.00 | 36 | 1008.0 |
| 20260904214015 | 73 | 286 | 16.0 | 20.0 | 0.00 | 0.00 | 0.00 | 36 | 1008.0 |
| 20260904213512 | 74 | 295 | 16.0 | 20.0 | 0.00 | 0.00 | 0.00 | 36 | 1008.0 |
| 20260904213010 | 74 | 129 | 8.0 | 13.0 | 0.00 | 0.00 | 0.00 | 37 | 1007.9 |
| 20260904212508 | 74 | 312 | 20.0 | 24.0 | 0.00 | 0.00 | 0.00 | 35 | 1007.8 |
| 20260904212004 | 74 | 307 | 13.0 | 16.0 | 0.00 | 0.00 | 0.00 | 35 | 1007.7 |
| 20260904211458 | 74 | 141 | 6.0 | 8.0 | 0.00 | 0.00 | 0.00 | 36 | 1007.6 |
| 20260904210954 | 73 | 304 | 12.0 | 16.0 | 0.00 | 0.00 | 0.00 | 37 | 1007.5 |
| 20260904210453 | 74 | 321 | 14.0 | 16.0 | 0.00 | 0.00 | 0.00 | 36 | 1007.5 |
| 20260904205948 | 74 | 316 | 12.0 | 16.0 | 0.00 | 0.00 | 0.00 | 37 | 1007.3 |
| 20260904205444 | 74 | 313 | 6.0 | 8.0 | 0.00 | 0.00 | 0.00 | 36 | 1007.2 |
| 20260904204941 | 74 | 322 | 11.0 | 16.0 | 0.00 | 0.00 | 0.00 | 36 | 1007.2 |
| 20260904204436 | 73 | 311 | 10.0 | 17.0 | 0.00 | 0.00 | 0.00 | 37 | 1007.0 |
| 20260904203932 | 73 | 293 | 16.0 | 21.0 | 0.00 | 0.00 | 0.00 | 37 | 1007.0 |
| 20260904203429 | 73 | 318 | 15.0 | 18.0 | 0.00 | 0.00 | 0.00 | 36 | 1007.0 |
| 20260904202924 | 73 | 308 | 18.0 | 21.0 | 0.00 | 0.00 | 0.00 | 36 | 1007.1 |
| 20260904202420 | 74 | 298 | 13.0 | 16.0 | 0.00 | 0.00 | 0.00 | 36 | 1007.1 |
| 20260904201916 | 73 | 304 | 7.0 | 13.0 | 0.00 | 0.00 | 0.00 | 37 | 1006.8 |
| 20260904201411 | 73 | 305 | 14.0 | 17.0 | 0.00 | 0.00 | 0.00 | 36 | 1006.8 |
| 20260904200907 | 73 | 317 | 14.0 | 17.0 | 0.00 | 0.00 | 0.00 | 36 | 1006.8 |
| 20260904200405 | 73 | 297 | 14.0 | 18.0 | 0.00 | 0.00 | 0.00 | 36 | 1006.8 |
| 20260904195900 | 73 | 296 | 13.0 | 15.0 | 0.00 | 0.00 | 0.00 | 37 | 1006.7 |
| 20260904195358 | 73 | 297 | 14.0 | 17.0 | 0.00 | 0.00 | 0.00 | 37 | 1006.6 |
| 20260904194853 | 73 | 284 | 14.0 | 16.0 | 0.00 | 0.00 | 0.00 | 38 | 1006.5 |
| 20260904194352 | 73 | 290 | 11.0 | 16.0 | 0.00 | 0.00 | 0.00 | 38 | 1006.6 |
| 20260904193848 | 73 | 250 | 12.0 | 14.0 | 0.00 | 0.00 | 0.00 | 37 | 1006.5 |
| 20260904193343 | 72 | 80 | 11.0 | 13.0 | 0.00 | 0.00 | 0.00 | 38 | 1006.4 |
| 20260904192838 | 71 | 350 | 14.0 | 16.0 | 0.00 | 0.00 | 0.00 | 39 | 1006.3 |
| 20260904192333 | 71 | 316 | 15.0 | 16.0 | 0.00 | 0.00 | 0.00 | 38 | 1006.3 |
| 20260904191830 | 71 | 282 | 14.0 | 16.0 | 0.00 | 0.00 | 0.00 | 39 | 1006.0 |
| 20260904191326 | 71 | 332 | 14.0 | 16.0 | 0.00 | 0.00 | 0.00 | 38 | 1006.1 |
| 20260904190823 | 70 | 310 | 15.0 | 18.0 | 0.00 | 0.00 | 0.00 | 39 | 1005.8 |
| 20260904190318 | 71 | 3 | 6.0 | 8.0 | 0.00 | 0.00 | 0.00 | 42 | 1005.9 |
| 20260904185814 | 70 | 290 | 6.0 | 8.0 | 0.00 | 0.00 | 0.00 | 42 | 1005.9 |
| 20260904185310 | 68 | 279 | 6.0 | 7.0 | 0.00 | 0.00 | 0.00 | 43 | 1005.8 |
| 20260904184809 | 68 | 219 | 6.0 | 8.0 | 0.00 | 0.00 | 0.00 | 44 | 1005.8 |
| 20260904184304 | 67 | 311 | 10.0 | 13.0 | 0.00 | 0.00 | 0.00 | 43 | 1006.0 |
| 20260904183759 | 67 | 282 | 10.0 | 11.0 | 0.00 | 0.00 | 0.00 | 45 | 1005.9 |